Location: Area 52 Observatory
(34.2620°N, 119.2590°W)
Time: 09:24:20
(UTC-07:00)

Tiangong 2 - Pass Details

Date: 24 March 2019
Orbit: 378 x 390 km, 42.8° (Epoch: 26 April)

Event Time Altitude Azimuth Distance (km) Brightness Sun altitude
Exits shadow 05:04:07 29° 110° (ESE) 723 2.8 -23.4°
Drops below altitude 10° 05:05:50 10° 115° (ESE) 1,397 4.5 -23.1°
Sets 05:07:54 0° 117° (ESE) 2,251 5.6 -22.6°
